DLH7LL EDDN-EDDG

Flight info

Callsign DLH7LL
Flight time 0h 46m
Altitude 24000
Route SULUS1C SULUS L604 MASEK Z52 ARPEG Z850 HMM
Aircraft A319/M-SDE3FGHIRWY/LB1

Departure

Time 2026-04-28 15:24
Airport Nuremberg Airport (EDDN)

Arrival

Time 2026-04-28 16:10
Airport Münster Osnabrück Airport (EDDG)
Time Latitude Longitude Altitude Speed Heading
2026-04-28 14:39 49.49521 11.07725 1159 ft 0 kts 188°
2026-04-28 14:50 49.49522 11.07725 1159 ft 0 kts 188°
2026-04-28 15:14 49.49523 11.07725 1159 ft 5 kts 188°
2026-04-28 15:14 49.49538 11.07729 1027 ft 6 kts 186°
2026-04-28 15:15 49.49558 11.07733 1066 ft 6 kts 186°
2026-04-28 15:15 49.49577 11.07731 1027 ft 6 kts 148°
2026-04-28 15:15 49.49590 11.07711 1029 ft 6 kts 107°
2026-04-28 15:15 49.49592 11.07699 1029 ft 1 kts 98°
2026-04-28 15:19 49.49593 11.07718 1029 ft 3 kts 85°
2026-04-28 15:19 49.49610 11.07756 1028 ft 6 kts 35°
2026-04-28 15:19 49.49658 11.07768 1029 ft 9 kts 351°
2026-04-28 15:19 49.49690 11.07678 1025 ft 12 kts 278°
2026-04-28 15:20 49.49703 11.07538 1026 ft 15 kts 279°
2026-04-28 15:20 49.49720 11.07365 1028 ft 18 kts 278°
2026-04-28 15:20 49.49741 11.07154 1025 ft 22 kts 278°
2026-04-28 15:20 49.49765 11.06902 1022 ft 25 kts 279°
2026-04-28 15:21 49.49793 11.06632 1021 ft 26 kts 278°
2026-04-28 15:21 49.49819 11.06359 1022 ft 26 kts 278°
2026-04-28 15:21 49.49843 11.06121 1025 ft 15 kts 279°
2026-04-28 15:21 49.49876 11.05994 1026 ft 12 kts 318°
2026-04-28 15:22 49.49942 11.05946 1029 ft 0 kts 340°
2026-04-28 15:22 49.49950 11.05942 1030 ft 3 kts 341°
2026-04-28 15:22 49.49983 11.05932 1030 ft 7 kts 358°
2026-04-28 15:22 49.50041 11.05954 1030 ft 10 kts 49°
2026-04-28 15:23 49.50041 11.06067 1030 ft 12 kts 98°
2026-04-28 15:23 49.50013 11.06349 1024 ft 60 kts 98°
2026-04-28 15:23 49.49916 11.07348 1026 ft 125 kts 99°
2026-04-28 15:23 49.49756 11.08881 1316 ft 149 kts 96°
2026-04-28 15:24 49.49539 11.10425 2071 ft 147 kts 98°
2026-04-28 15:24 49.49307 11.11947 2760 ft 147 kts 100°
2026-04-28 15:24 49.49071 11.13495 3357 ft 150 kts 100°
2026-04-28 15:24 49.48903 11.15152 3782 ft 167 kts 94°
2026-04-28 15:25 49.48962 11.17052 4128 ft 191 kts 78°
2026-04-28 15:25 49.49441 11.19091 4512 ft 216 kts 62°
2026-04-28 15:25 49.50398 11.21033 4990 ft 242 kts 44°
2026-04-28 15:25 49.51761 11.22712 5713 ft 256 kts 40°
2026-04-28 15:26 49.53173 11.24421 6684 ft 260 kts 39°
2026-04-28 15:26 49.54603 11.26166 7616 ft 264 kts 40°
2026-04-28 15:26 49.56058 11.27952 8538 ft 271 kts 39°
2026-04-28 15:26 49.57635 11.29599 9387 ft 279 kts 25°
2026-04-28 15:27 49.59528 11.30355 10209 ft 286 kts
2026-04-28 15:27 49.61503 11.29966 11029 ft 290 kts 341°
2026-04-28 15:27 49.63400 11.28603 11420 ft 313 kts 331°
2026-04-28 15:27 49.65377 11.26936 11795 ft 333 kts 330°
2026-04-28 15:28 49.67427 11.25169 12514 ft 339 kts 330°
2026-04-28 15:28 49.69496 11.23380 13353 ft 343 kts 330°
2026-04-28 15:28 49.71586 11.21585 14180 ft 345 kts 330°
2026-04-28 15:28 49.73668 11.19813 14919 ft 347 kts 330°
2026-04-28 15:29 49.75823 11.17991 15672 ft 350 kts 330°
2026-04-28 15:29 49.77942 11.16200 16392 ft 353 kts 330°
2026-04-28 15:29 49.80138 11.14343 17136 ft 356 kts 330°
2026-04-28 15:29 49.82290 11.12516 17864 ft 359 kts 329°
2026-04-28 15:30 49.84380 11.10276 18548 ft 362 kts 319°
2026-04-28 15:30 49.86156 11.07573 19154 ft 365 kts 313°
2026-04-28 15:30 49.87919 11.04727 19784 ft 368 kts 313°
2026-04-28 15:30 49.89698 11.01850 20405 ft 371 kts 313°
2026-04-28 15:31 49.91489 10.98944 21027 ft 374 kts 313°
2026-04-28 15:31 49.93291 10.96014 21651 ft 377 kts 313°
2026-04-28 15:31 49.95112 10.93059 22249 ft 380 kts 313°
2026-04-28 15:31 49.96951 10.90082 22825 ft 383 kts 313°
2026-04-28 15:32 49.98803 10.87080 23393 ft 387 kts 313°
2026-04-28 15:32 50.00044 10.85069 23755 ft 389 kts 313°
2026-04-28 15:32 50.02555 10.80995 24111 ft 391 kts 312°
2026-04-28 15:32 50.04435 10.77936 24159 ft 391 kts 312°
2026-04-28 15:33 50.06308 10.74878 24165 ft 391 kts 312°
2026-04-28 15:33 50.08180 10.71812 24170 ft 391 kts 312°
2026-04-28 15:33 50.10055 10.68748 24177 ft 391 kts 312°
2026-04-28 15:33 50.11928 10.65684 24171 ft 391 kts 312°
2026-04-28 15:34 50.13805 10.62611 24172 ft 391 kts 312°
2026-04-28 15:34 50.15675 10.59542 24173 ft 391 kts 312°
2026-04-28 15:34 50.17546 10.56471 24180 ft 391 kts 312°
2026-04-28 15:34 50.19418 10.53394 24175 ft 391 kts 312°
2026-04-28 15:35 50.21290 10.50310 24176 ft 391 kts 312°
2026-04-28 15:35 50.25048 10.44164 24178 ft 391 kts 313°
2026-04-28 15:35 50.26922 10.41158 24183 ft 391 kts 313°
2026-04-28 15:36 50.28820 10.38127 24177 ft 391 kts 313°
2026-04-28 15:36 50.30722 10.35083 24178 ft 391 kts 313°
2026-04-28 15:36 50.32615 10.32034 24186 ft 390 kts 313°
2026-04-28 15:36 50.34504 10.28982 24186 ft 390 kts 313°
2026-04-28 15:37 50.36353 10.25872 24181 ft 390 kts 310°
2026-04-28 15:37 50.38123 10.22652 24183 ft 390 kts 310°
2026-04-28 15:37 50.39919 10.19468 24182 ft 390 kts 311°
2026-04-28 15:37 50.41135 10.17400 24183 ft 390 kts 312°
2026-04-28 15:38 50.43647 10.13286 24181 ft 390 kts 313°
2026-04-28 15:38 50.45524 10.10224 24179 ft 390 kts 313°
2026-04-28 15:38 50.47384 10.07126 24182 ft 390 kts 312°
2026-04-28 15:38 50.49225 10.04004 24182 ft 390 kts 312°
2026-04-28 15:39 50.51057 10.00858 24184 ft 390 kts 311°
2026-04-28 15:39 50.52883 9.97708 24189 ft 390 kts 311°
2026-04-28 15:39 50.54682 9.94590 24190 ft 390 kts 311°
2026-04-28 15:39 50.56454 9.91367 24194 ft 390 kts 309°
2026-04-28 15:40 50.58188 9.88085 24197 ft 390 kts 309°
2026-04-28 15:40 50.59901 9.84781 24200 ft 390 kts 308°
2026-04-28 15:40 50.61608 9.81475 24203 ft 389 kts 309°
2026-04-28 15:40 50.63320 9.78172 24201 ft 389 kts 309°
2026-04-28 15:41 50.65031 9.74884 24201 ft 389 kts 309°
2026-04-28 15:41 50.66755 9.71586 24200 ft 389 kts 309°
2026-04-28 15:41 50.68476 9.68306 24203 ft 389 kts 309°
2026-04-28 15:41 50.70204 9.65018 24200 ft 389 kts 309°
2026-04-28 15:42 50.71809 9.61605 24200 ft 388 kts 301°
2026-04-28 15:42 50.73012 9.57791 24194 ft 389 kts 291°
2026-04-28 15:42 50.73761 9.53696 24188 ft 389 kts 283°
2026-04-28 15:42 50.74314 9.49521 24192 ft 389 kts 283°
2026-04-28 15:43 50.74876 9.45332 24186 ft 389 kts 283°
2026-04-28 15:43 50.75447 9.41150 24187 ft 390 kts 283°
2026-04-28 15:43 50.76022 9.36968 24187 ft 390 kts 283°
2026-04-28 15:43 50.76598 9.32792 24179 ft 390 kts 283°
2026-04-28 15:44 50.77171 9.28611 24179 ft 390 kts 283°
2026-04-28 15:44 50.77742 9.24421 24189 ft 390 kts 283°
2026-04-28 15:44 50.78305 9.20236 24184 ft 390 kts 283°
2026-04-28 15:44 50.78862 9.16038 24172 ft 390 kts 283°
2026-04-28 15:45 50.79416 9.11845 24175 ft 390 kts 283°
2026-04-28 15:45 50.79970 9.07656 24171 ft 390 kts 283°
2026-04-28 15:45 50.80525 9.03454 24170 ft 390 kts 283°
2026-04-28 15:45 50.81076 8.99252 24168 ft 391 kts 282°
2026-04-28 15:46 50.81629 8.95042 24181 ft 391 kts 283°
2026-04-28 15:46 50.82191 8.90897 24182 ft 391 kts 285°
2026-04-28 15:46 50.83097 8.86806 24175 ft 390 kts 295°
2026-04-28 15:46 50.84326 8.83047 24185 ft 390 kts 298°
2026-04-28 15:47 50.85596 8.79257 24176 ft 390 kts 298°
2026-04-28 15:47 50.86860 8.75462 24182 ft 390 kts 298°
2026-04-28 15:47 50.88123 8.71659 24176 ft 390 kts 298°
2026-04-28 15:47 50.89384 8.67857 24179 ft 390 kts 298°
2026-04-28 15:48 50.90646 8.64056 24177 ft 390 kts 298°
2026-04-28 15:48 50.91908 8.60247 24178 ft 390 kts 297°
2026-04-28 15:48 50.93167 8.56437 24176 ft 390 kts 297°
2026-04-28 15:48 50.94427 8.52623 24176 ft 390 kts 297°
2026-04-28 15:49 50.95684 8.48810 24173 ft 390 kts 297°
2026-04-28 15:49 50.96940 8.44994 24183 ft 390 kts 297°
2026-04-28 15:49 50.98195 8.41179 24177 ft 390 kts 297°
2026-04-28 15:49 50.99453 8.37357 24178 ft 391 kts 297°
2026-04-28 15:50 51.00867 8.33676 24188 ft 391 kts 306°
2026-04-28 15:50 51.02686 8.30475 24178 ft 392 kts 317°
2026-04-28 15:50 51.04860 8.27844 24179 ft 394 kts 327°
2026-04-28 15:50 51.07244 8.25709 24188 ft 394 kts 330°
2026-04-28 15:51 51.09639 8.23591 24106 ft 391 kts 329°
2026-04-28 15:51 51.11995 8.21489 23586 ft 387 kts 329°
2026-04-28 15:51 51.14330 8.19396 23013 ft 383 kts 329°
2026-04-28 15:51 51.16645 8.17316 22471 ft 381 kts 330°
2026-04-28 15:52 51.18945 8.15250 21978 ft 378 kts 330°
2026-04-28 15:52 51.21232 8.13199 21487 ft 376 kts 330°
2026-04-28 15:52 51.23505 8.11163 20992 ft 373 kts 330°
2026-04-28 15:52 51.25734 8.09164 20508 ft 371 kts 330°
2026-04-28 15:53 51.27976 8.07151 20023 ft 369 kts 331°
2026-04-28 15:53 51.30207 8.05145 19555 ft 366 kts 331°
2026-04-28 15:53 51.32420 8.03152 19071 ft 364 kts 331°
2026-04-28 15:53 51.34622 8.01171 18599 ft 362 kts 332°
2026-04-28 15:54 51.36809 7.99203 18058 ft 360 kts 332°
2026-04-28 15:54 51.38985 7.97244 17536 ft 358 kts 332°
2026-04-28 15:54 51.41147 7.95292 17019 ft 356 kts 331°
2026-04-28 15:54 51.42597 7.93979 16684 ft 354 kts 331°
2026-04-28 15:55 51.44737 7.92045 16184 ft 352 kts 332°
2026-04-28 15:55 51.46870 7.90122 15693 ft 350 kts 332°
2026-04-28 15:55 51.49070 7.88495 15204 ft 347 kts 342°
2026-04-28 15:55 51.51373 7.87384 14716 ft 345 kts 345°
2026-04-28 15:56 51.53641 7.86307 14269 ft 344 kts 345°
2026-04-28 15:56 51.55958 7.85198 13782 ft 342 kts 345°
2026-04-28 15:56 51.58232 7.84107 13252 ft 340 kts 345°
2026-04-28 15:56 51.60467 7.83031 12763 ft 338 kts 345°
2026-04-28 15:57 51.62746 7.81930 12261 ft 336 kts 345°
2026-04-28 15:57 51.64947 7.80864 11768 ft 334 kts 345°
2026-04-28 15:57 51.67167 7.79790 11282 ft 332 kts 345°
2026-04-28 15:57 51.69374 7.78724 10788 ft 330 kts 345°
2026-04-28 15:58 51.71568 7.77667 10304 ft 328 kts 345°
2026-04-28 15:58 51.73728 7.76626 10057 ft 318 kts 345°
2026-04-28 15:58 51.75808 7.75623 9931 ft 306 kts 345°
2026-04-28 15:58 51.77805 7.74656 9777 ft 294 kts 345°
2026-04-28 15:59 51.79736 7.73717 9591 ft 286 kts 345°
2026-04-28 15:59 51.81626 7.72800 9280 ft 283 kts 346°
2026-04-28 15:59 51.83505 7.71891 8960 ft 279 kts 346°
2026-04-28 15:59 51.85286 7.70794 8843 ft 271 kts 334°
2026-04-28 16:00 51.86807 7.69062 8705 ft 264 kts 320°
2026-04-28 16:00 51.88096 7.67021 8577 ft 254 kts 318°
2026-04-28 16:00 51.89328 7.65067 8427 ft 241 kts 319°
2026-04-28 16:00 51.90513 7.63195 8124 ft 234 kts 319°
2026-04-28 16:01 51.91645 7.61408 7987 ft 221 kts 320°
2026-04-28 16:01 51.92722 7.59709 7854 ft 210 kts 320°
2026-04-28 16:01 51.93748 7.58087 7708 ft 202 kts 320°
2026-04-28 16:01 51.94729 7.56540 7451 ft 192 kts 315°
2026-04-28 16:02 51.95667 7.55059 7322 ft 184 kts 315°
2026-04-28 16:02 51.96553 7.53658 7191 ft 176 kts 315°
2026-04-28 16:02 51.97405 7.52313 7042 ft 166 kts 315°
2026-04-28 16:02 51.98135 7.50923 6887 ft 159 kts 303°
2026-04-28 16:03 51.98798 7.49495 6621 ft 161 kts 307°
2026-04-28 16:03 51.99535 7.47957 5964 ft 183 kts 307°
2026-04-28 16:03 52.00350 7.46263 5397 ft 195 kts 307°
2026-04-28 16:03 52.01194 7.44507 4889 ft 200 kts 307°
2026-04-28 16:04 52.02060 7.42702 4374 ft 205 kts 307°
2026-04-28 16:04 52.02940 7.40869 3945 ft 205 kts 307°
2026-04-28 16:04 52.03894 7.39285 3782 ft 191 kts 327°
2026-04-28 16:04 52.05099 7.38656 3678 ft 176 kts 356°
2026-04-28 16:05 52.06241 7.38975 3621 ft 162 kts 22°
2026-04-28 16:05 52.07140 7.39979 3527 ft 152 kts 45°
2026-04-28 16:05 52.07686 7.41365 3374 ft 144 kts 68°
2026-04-28 16:05 52.08014 7.42883 3205 ft 142 kts 71°
2026-04-28 16:06 52.08337 7.44387 3029 ft 141 kts 71°
2026-04-28 16:06 52.08659 7.45888 2846 ft 140 kts 71°
2026-04-28 16:06 52.08974 7.47360 2669 ft 139 kts 71°
2026-04-28 16:06 52.09291 7.48845 2473 ft 139 kts 71°
2026-04-28 16:07 52.09607 7.50326 2307 ft 139 kts 71°
2026-04-28 16:07 52.09924 7.51808 2111 ft 138 kts 72°
2026-04-28 16:07 52.10518 7.54622 1817 ft 138 kts 73°
2026-04-28 16:08 52.10845 7.56153 1617 ft 142 kts 71°
2026-04-28 16:08 52.11164 7.57641 1406 ft 138 kts 71°
2026-04-28 16:08 52.11476 7.59106 1209 ft 137 kts 71°
2026-04-28 16:09 52.12098 7.62011 804 ft 136 kts 71°
2026-04-28 16:09 52.12400 7.63461 586 ft 135 kts 72°
2026-04-28 16:09 52.12705 7.64899 407 ft 134 kts 71°
2026-04-28 16:10 52.13309 7.67751 166 ft 123 kts 71°
2026-04-28 16:10 52.13535 7.68820 167 ft 75 kts 71°
2026-04-28 16:10 52.13717 7.69681 168 ft 34 kts 71°
2026-04-28 16:11 52.13621 7.69982 168 ft 22 kts 224°
2026-04-28 16:11 52.13508 7.69512 168 ft 23 kts 250°
2026-04-28 16:12 52.13369 7.69257 167 ft 15 kts 159°
2026-04-28 16:12 52.13267 7.69315 167 ft 16 kts 161°
2026-04-28 16:13 52.13164 7.69313 167 ft 1 kts 189°
2026-04-28 16:13 52.13160 7.69313 167 ft 0 kts 187°